Regional Weather Roundup
Issued by NWS Wakefield, VA

Home | Current Version | Previous Version | Text Only | Print | Product List | Glossary On
Versions: 1 2 3 4 5 6 7 8 9 10 11 12 13 14 15 16 17 18 19 20 21 22 23 24 25 26 27 28 29 30 31 32 33 34 35 36 37 38 39 40 41 42 43 44 45 46 47 48 49 50
000
ASUS41 KAKQ 281415
RWRAKQ

REGIONAL WEATHER ROUNDUP
NATIONAL WEATHER SERVICE WAKEFIELD VA
1000 AM EDT SUN AUG 28 2016

Note: "fair" indicates few or no clouds below 12,000 feet with no
significant weather and/or obstructions to visibility. * = Denotes
station may not report precipitation (e.g., rain,snow,etc.),
thunder or fog.

VAZ042-051-052>054-056-281500-
NORTHERN VIRGINIA

CITY           SKY/WX    TMP DP  RH WIND       PRES   REMARKS
WASH NATIONAL  MOSUNNY   80  72  76 NE6       30.26S
DULLES         MOSUNNY   80  69  69 CALM      30.26R
FORT BELVOIR   MOSUNNY   79  70  74 VRB3      30.25R
QUANTICO       NOT AVBL
FREDERICKSBRG* PTSUNNY   79  74  82 N3        30.24R
STAFFORD*      PTSUNNY   79  71  76 NE5       30.29R
WARRENTON      SUNNY     80  68  66 N3        30.25S
CULPEPER*      MOSUNNY   78  72  81 CALM      30.26S
MANASSAS*      NOT AVBL
LEESBURG*      PTSUNNY   79  73  83 CALM      30.28R
WINCHESTER     SUNNY     79  68  69 CALM      30.27R
FRONT ROYAL*   FAIR      77  70  78 CALM      30.26S
LURAY*         FAIR      79  68  69 CALM      30.27S
$$

VAZ048-049-060>072-079>083-281500-
CENTRAL AND SOUTH CENTRAL VIRGINIA

CITY           SKY/WX    TMP DP  RH WIND       PRES   REMARKS
RICHMOND       PTSUNNY   79  72  79 N9        30.23S
CHESTERFIELD*  PTSUNNY   79  61  53 NE7       30.25S
PETERSBURG*    PTSUNNY   83  72  70 E7        30.23S
HANOVER        CLOUDY    75  71  87 NE6       30.26R
TAPPAHANNOCK*  MOSUNNY   79  77  94 N3        30.25R
QUINTON*       CLOUDY    75  73  93 NE5       30.23S
CHARLOTTSVILLE SUNNY     79  69  71 VRB5      30.27R
GORDONSVILLE*  FAIR      79  72  78 CALM      30.26R
ORANGE*          N/A     77  73  88 CALM      30.28S
LOUISA*        CLOUDY    79  75  89 CALM      30.26R
BUMPASS*       PTSUNNY   79  73  82 CALM      30.25R
FARMVILLE*     CLOUDY    78  74  86 N3        30.24S
CREWE*         FAIR      78  73  83 NE3       30.24S
FORT PICKETT*  NOT AVBL
CHASE CITY*    FAIR      77  73  87 NE3       30.24R
CLARKSVILLE*   PTSUNNY   75  72  88 NE3       30.24R
SOUTH HILL*    CLOUDY    77  72  86 NE3       30.29R
LAWRENCEVILLE* CLOUDY    78  72  83 NE6       30.23R
EMPORIA*       CLOUDY    75  72  88 N6        30.23S
$$

VAZ088>098-281500-
SOUTHEAST VIRGINIA

CITY           SKY/WX    TMP DP  RH WIND       PRES   REMARKS
NORFOLK        PTSUNNY   81  74  79 NE12      30.19R
VIRGINIA BEACH CLOUDY    85  72  65 NE8G17    30.18R
NORFOLK NAVAL  PTSUNNY   83  72  69 NE14      30.21R
WEST POINT*    MOSUNNY   81  71  72 N8        30.23F
SALUDA*        FAIR      81  73  76 E5        30.21F
NEWPORT NEWS   SUNNY     83  70  64 NE13G21   30.20S
LANGLEY AFB    SUNNY     82  73  72 NE14      30.19S
FORT EUSTIS    MOSUNNY   85  69  58 NE9       30.18S
WILLIAMSBURG*  MOSUNNY   84  75  74 E3        30.22S
HR EXEC AP*    PTSUNNY   81  72  74 NE8G16    30.21S
FRANKLIN*      CLOUDY    78  73  83 N8        30.21S
US460-WAKEFLD  MOSUNNY   79  72  79 NE6       30.21S
$$

VAZ020-022-025-037-045-281500-
WEST CENTRAL AND SOUTHWEST VIRGINIA

CITY           SKY/WX    TMP DP  RH WIND       PRES   REMARKS
STAUNTON*      SUNNY     76  67  73 CALM      30.31S
WAYNESBORO*    FAIR      76  66  70 CALM      30.30S
HOT SPRINGS VA CLOUDY    70  64  80 CALM      30.40R
LYNCHBURG      SUNNY     79  66  64 NE5       30.29R
DANVILLE       SUNNY     78  69  73 NE6       30.25S
SOUTH BOSTON*  CLOUDY    74  73  93 CALM      30.25R
MARTINSVILLE   SUNNY     78  67  69 NE6       30.30R
ROANOKE        MOSUNNY   79  66  64 CALM      30.30S
BLACKSBURG     MOSUNNY   76  67  73 E3        30.36S
DUBLIN*        MOSUNNY   76  69  80 E5        30.34S
MARION*        CLOUDY    74  68  81 NE6       30.37R
HILLSVILLE*    CLOUDY    70  69  97 CALM      30.35R
RICHLANDS*     PTSUNNY   77  69  76 E3        30.33R
WISE*          CLOUDY    77  61  57 SE5       30.33S
ABINGDON*      MOSUNNY   80  70  71 E9        30.30S
$$

MDZ021>025-VAZ099-100-281500-
SOUTHERN MARYLAND AND THE DELMARVA PENINSULA

CITY           SKY/WX    TMP DP  RH WIND       PRES   REMARKS
PATUXENT RIVER PTSUNNY   77  70  79 E7        30.24S
BAY BRIDGE APT MOSUNNY   79  72  78 E8        30.25F
LEONARDTOWN    PTSUNNY   77  68  73 E6        30.26S
DOVER          SUNNY     79  75  86 NE6       30.24S
GEORGETOWN     NOT AVBL
EASTON         SUNNY     81  75  83 E7        30.29
CAMBRIDGE      MOSUNNY   77  70  78 NE6       30.25R
SALISBURY      SUNNY     79  71  76 E7        30.23S
OCEAN CITY     SUNNY     82  69  64 NE9       30.23S
WALLOPS ISLAND MOSUNNY   82  61  48 NE12      30.23R
ACCOMACK*      MOSUNNY   82  70  66 E13       30.21S
$$

NCZ012>017-030>032-281500-
NORTH CENTRAL AND EASTERN NORTH CAROLINA

CITY           SKY/WX    TMP DP  RH WIND       PRES   REMARKS
ROANOKE RAPIDS FAIR      79  72  78 NE8       30.20F
RALEIGH        PTSUNNY   77  71  82 NE8       30.22R
ELIZABETH CITY PTSUNNY   83  76  79 N14       30.17R
AHOSKIE*       MOSUNNY   79  73  81 N10       30.19S
EDENTON*       PTSUNNY   83  77  81 N7        30.17S
CURRITUCK*       N/A     82  75  80 NE13G18   30.18R
KILL DEVIL HLS CLOUDY    83  80  90 N6        30.14R HX  95
MANTEO         CLOUDY    84  78  83 NE14      30.15R
CAPE HATTERAS  CLOUDY    85  75  72 VRB3      30.13R
TARBORO*       CLOUDY    79  74  84 N6        30.19S
GOLDSBORO      CLOUDY    79  77  94 NE12G17   30.16S
WASHINGTON     CLOUDY    78  75  90 NE8       30.17R
GREENVILLE     CLOUDY    79  75  89 NE6       30.19R
NEW BERN       CLOUDY    79  75  87 N8        30.16S
WILMINGTON     CLOUDY    81  74  79 N10       30.13S
$$

VAZ048-281500-
ELSEWHERE

CITY           SKY/WX    TMP DP  RH WIND       PRES   REMARKS
HARRISBURG PA  MOSUNNY   78  70  76 SE5       30.26S
BALTIMORE      MOSUNNY   79  70  74 E7        30.25S
ANNAPOLIS      MOSUNNY   79  72  79 E7        30.25S
ANDREWS AFB    MOSUNNY   77  71  81 E5        30.25S
PHILADELPHIA   MOSUNNY   80  67  64 CALM      30.27S
HENDERSON NC   MOSUNNY   73  69  88 NE7       30.24R
GREENSBORO     MOSUNNY   79  69  71 NE9       30.24S
ROCKY MOUNT    MOSUNNY   79  74  84 NE10      30.19S
$$

VAZ100-281500-
MARINE

STATION/POSITION TIME  TEMP    WIND        PRES    WAVE   SWELL
                       AIR SEA DIR/SP/G            HT/PER HT/PER
                 (UTC) (F)     (DEG/KT/KT) (MB)    (FT/S) (FT/S)
BRANDYWINE LGT   1300   76      60/  7/  8   N/A
CAPE MAY NJ      1300   78 73   80/  8/ 11 1023.7R
LEWES DE         1300   75 76   40/  5/  5 1024.0R
OCEAN-CITY-INLET 1300   78 75   80/  4/  6 1023.9R
WACHAPREAGUE VA  1300   80 81   50/  9/ 14 1022.8R
THOMAS POINT MD  1400   76 83   20/  6/  7 1025.8S
GOOSES REEF MD   1400   78 83   80/  6/  8 1024.8S   1
COVE POINT MD    1300   76      70/  6/  9 1024.7R
SOLOMONS ISLAND  1300   78 84   70/  7/  9   N/A
PINEY POINT MD   1300           70/  5/  7   N/A
POTOMAC MD       1400   78 83   40/  8/ 10 1022.9R   1
CAMBRIDGE MD     1300   76 84   50/  5/  7 1023.3R
LEWISETTA VA     1300   79 82   90/  6/  8 1023.2R
RAPPAHANNOCK LGT 1300           40/ 11/ 13 1023.6R
STINGRAY PT      1400   80 83  360/ 12/ 14 1023.5F   2/ 3
YORK RVR RNG VA  1300   79      50/ 14/ 16 1022.3R
YORKTOWN VA      1300   80 83   40/ 11/ 14 1022.4R
JAMESTOWN VA     1400   79 86   30/  6/ 10   N/A     0
DOMINION TERM VA 1300   82      60/  6/ 11 1022.4R
KIPTOPEKE VA     1300      80   70/  9/ 13   N/A
CHES BAY BRIDGE  1300   78 74   20/ 13/ 15 1022.0R
CAPE HENRY VA    1300   78      40/ 13/ 16   N/A
WILLOUBY STN VA  1300   79      30/ 12/ 14   N/A
CAPE HENRY BUOY  1312      80                N/A     4/ 6
1ST LANDING BUOY 1400   79 77   70/ 12/ 16 1022.1R   2/ 3
CAPE CHARLES BUO 1326      79                N/A     4/ 6
OFFSHORE WE BUOY 1321      80                N/A     4/ 6
64NM E OF VA BCH 1350   81 81   60/ 12/ 16 1020.8R   4/ 6   3/ 6
DUCK PIER NC     1300   80 77   30/ 11/ 13 1020.2R
44100 DUCK FRF   1305      80                N/A     4/ 6
44056 DUCK FRF   1311      79                N/A     4/ 6
OREGON INLET NC  1300   81 78   20/  9/ 11 1020.0R
HATTERAS NC      1300   84 83  110/  2/  5 1019.3S
DIAMOND SHLS NC  1350   84 85   80/  8/ 10 1019.9R   3/ 8   3/ 8
CAPE LOOKOUT NC  1400   82      50/  8/  8 1019.9R
$$



USA.gov is the U.S. government's official web portal to all federal, state and local government web resources and services.